Time,TemperatureF,DewpointF,PressureIn,WindDirection,WindDirectionDegrees,WindSpeedMPH,WindSpeedGustMPH,Humidity,HourlyPrecipIn,Conditions,Clouds,dailyrainin,SoftwareType,DateUTC
2013-02-16 00:01:00,47.0,-99.9,30.26,SSW,213,5.0,7.0,-999,-99.99,,,-99.99,,2013-02-16 08:01:00,
2013-02-16 00:11:00,47.0,-99.9,30.26,West,268,4.0,7.0,-999,-99.99,,,-99.99,,2013-02-16 08:11:00,
2013-02-16 00:22:00,47.0,-99.9,30.26,SW,219,4.0,5.0,-999,-99.99,,,-99.99,,2013-02-16 08:22:00,
2013-02-16 00:32:00,47.0,-99.9,30.27,South,183,5.0,6.0,-999,-99.99,,,-99.99,,2013-02-16 08:32:00,
2013-02-16 00:42:00,47.0,-99.9,30.28,SW,230,6.0,8.0,-999,-99.99,,,-99.99,,2013-02-16 08:42:00,
2013-02-16 00:52:00,47.0,-99.9,30.28,SW,229,6.0,8.0,-999,-99.99,,,-99.99,,2013-02-16 08:52:00,
2013-02-16 01:02:00,47.0,-99.9,30.28,SW,216,4.0,8.0,-999,-99.99,,,-99.99,,2013-02-16 09:02:00,
2013-02-16 01:11:00,47.0,-99.9,30.28,WSW,246,4.0,9.0,-999,-99.99,,,-99.99,,2013-02-16 09:11:00,
2013-02-16 01:21:00,47.0,-99.9,30.28,WSW,243,5.0,8.0,-999,-99.99,,,-99.99,,2013-02-16 09:21:00,
2013-02-16 01:32:00,47.0,-99.9,30.28,SW,230,4.0,6.0,-999,-99.99,,,-99.99,,2013-02-16 09:32:00,
2013-02-16 01:42:00,47.0,-99.9,30.28,WSW,239,4.0,6.0,-999,-99.99,,,-99.99,,2013-02-16 09:42:00,
2013-02-16 01:52:00,47.0,-99.9,30.28,West,272,6.0,10.0,-999,-99.99,,,-99.99,,2013-02-16 09:52:00,
2013-02-16 02:01:00,47.0,-99.9,30.28,West,277,7.0,9.0,-999,-99.99,,,-99.99,,2013-02-16 10:01:00,
2013-02-16 02:11:00,47.0,-99.9,30.28,West,271,6.0,9.0,-999,-99.99,,,-99.99,,2013-02-16 10:11:00,
2013-02-16 02:21:00,47.0,-99.9,30.28,West,279,5.0,8.0,-999,-99.99,,,-99.99,,2013-02-16 10:21:00,
2013-02-16 02:32:00,47.0,-99.9,30.27,West,275,6.0,8.0,-999,-99.99,,,-99.99,,2013-02-16 10:32:00,
2013-02-16 02:42:00,47.0,-99.9,30.27,WNW,285,5.0,8.0,-999,-99.99,,,-99.99,,2013-02-16 10:42:00,
2013-02-16 02:52:00,47.0,-99.9,30.27,West,270,7.0,9.0,-999,-99.99,,,-99.99,,2013-02-16 10:52:00,
2013-02-16 03:02:00,46.0,-99.9,30.27,West,280,6.0,9.0,-999,-99.99,,,-99.99,,2013-02-16 11:02:00,
2013-02-16 03:11:00,46.0,-99.9,30.27,West,277,5.0,6.0,-999,-99.99,,,-99.99,,2013-02-16 11:11:00,
2013-02-16 03:22:00,47.0,-99.9,30.27,WSW,245,4.0,5.0,-999,-99.99,,,-99.99,,2013-02-16 11:22:00,
2013-02-16 03:32:00,47.0,-99.9,30.27,SW,232,4.0,6.0,-999,-99.99,,,-99.99,,2013-02-16 11:32:00,
2013-02-16 03:42:00,47.0,-99.9,30.27,WSW,243,6.0,8.0,-999,-99.99,,,-99.99,,2013-02-16 11:42:00,
2013-02-16 03:52:00,47.0,-99.9,30.27,SW,229,4.0,6.0,-999,-99.99,,,-99.99,,2013-02-16 11:52:00,
2013-02-16 04:02:00,47.0,-99.9,30.27,SW,221,3.0,4.0,-999,-99.99,,,-99.99,,2013-02-16 12:02:00,
2013-02-16 04:12:00,46.0,-99.9,30.27,WSW,242,5.0,6.0,-999,-99.99,,,-99.99,,2013-02-16 12:12:00,
2013-02-16 04:22:00,46.0,-99.9,30.27,SW,219,3.0,6.0,-999,-99.99,,,-99.99,,2013-02-16 12:22:00,
2013-02-16 04:32:00,46.0,-99.9,30.27,SW,214,3.0,5.0,-999,-99.99,,,-99.99,,2013-02-16 12:32:00,
2013-02-16 04:42:00,46.0,-99.9,30.27,SW,227,4.0,5.0,-999,-99.99,,,-99.99,,2013-02-16 12:42:00,
2013-02-16 04:52:00,47.0,-99.9,30.27,WNW,291,5.0,8.0,-999,-99.99,,,-99.99,,2013-02-16 12:52:00,
2013-02-16 05:02:00,47.0,-99.9,30.27,WNW,295,3.0,8.0,-999,-99.99,,,-99.99,,2013-02-16 13:02:00,
2013-02-16 05:12:00,46.0,-99.9,30.27,WNW,286,7.0,9.0,-999,-99.99,,,-99.99,,2013-02-16 13:12:00,
2013-02-16 05:22:00,46.0,-99.9,30.27,WNW,293,7.0,10.0,-999,-99.99,,,-99.99,,2013-02-16 13:22:00,
2013-02-16 05:32:00,46.0,-99.9,30.28,WNW,291,9.0,11.0,-999,-99.99,,,-99.99,,2013-02-16 13:32:00,
2013-02-16 05:42:00,46.0,-99.9,30.28,WNW,300,5.0,9.0,-999,-99.99,,,-99.99,,2013-02-16 13:42:00,
2013-02-16 05:52:00,46.0,-99.9,30.28,NW,307,5.0,9.0,-999,-99.99,,,-99.99,,2013-02-16 13:52:00,
2013-02-16 06:01:00,46.0,-99.9,30.28,NW,314,5.0,8.0,-999,-99.99,,,-99.99,,2013-02-16 14:01:00,
2013-02-16 06:11:00,46.0,-99.9,30.28,NW,319,6.0,7.0,-999,-99.99,,,-99.99,,2013-02-16 14:11:00,
2013-02-16 06:21:00,46.0,-99.9,30.29,NW,312,4.0,7.0,-999,-99.99,,,-99.99,,2013-02-16 14:21:00,
2013-02-16 06:32:00,46.0,-99.9,30.29,NW,319,7.0,9.0,-999,-99.99,,,-99.99,,2013-02-16 14:32:00,
2013-02-16 06:42:00,46.0,-99.9,30.29,NW,305,5.0,9.0,-999,-99.99,,,-99.99,,2013-02-16 14:42:00,
2013-02-16 06:52:00,46.0,-99.9,30.29,WNW,302,5.0,7.0,-999,-99.99,,,-99.99,,2013-02-16 14:52:00,
2013-02-16 07:02:00,46.0,-99.9,30.29,WNW,285,6.0,9.0,-999,-99.99,,,-99.99,,2013-02-16 15:02:00,
2013-02-16 07:11:00,46.0,-99.9,30.29,WNW,288,6.0,8.0,-999,-99.99,,,-99.99,,2013-02-16 15:11:00,
2013-02-16 07:22:00,46.0,-99.9,30.29,WNW,291,4.0,6.0,-999,-99.99,,,-99.99,,2013-02-16 15:22:00,
2013-02-16 07:32:00,46.0,-99.9,30.29,West,279,6.0,8.0,-999,-99.99,,,-99.99,,2013-02-16 15:32:00,
2013-02-16 07:42:00,46.0,-99.9,30.29,WNW,283,4.0,5.0,-999,-99.99,,,-99.99,,2013-02-16 15:42:00,
2013-02-16 07:52:00,46.0,-99.9,30.29,West,278,5.0,6.0,-999,-99.99,,,-99.99,,2013-02-16 15:52:00,
2013-02-16 08:02:00,46.0,-99.9,30.30,West,269,5.0,6.0,-999,-99.99,,,-99.99,,2013-02-16 16:02:00,
2013-02-16 08:11:00,46.0,-99.9,30.30,West,275,4.0,6.0,-999,-99.99,,,-99.99,,2013-02-16 16:11:00,
2013-02-16 08:22:00,46.0,-99.9,30.30,WNW,283,4.0,6.0,-999,-99.99,,,-99.99,,2013-02-16 16:22:00,
2013-02-16 08:32:00,46.0,-99.9,30.31,WNW,285,6.0,8.0,-999,-99.99,,,-99.99,,2013-02-16 16:32:00,
2013-02-16 08:42:00,46.0,-99.9,30.31,West,278,6.0,8.0,-999,-99.99,,,-99.99,,2013-02-16 16:42:00,
2013-02-16 08:52:00,46.0,-99.9,30.31,West,277,6.0,8.0,-999,-99.99,,,-99.99,,2013-02-16 16:52:00,
2013-02-16 09:01:00,46.0,-99.9,30.31,WNW,303,4.0,7.0,-999,-99.99,,,-99.99,,2013-02-16 17:01:00,
2013-02-16 09:11:00,46.0,-99.9,30.31,West,275,4.0,6.0,-999,-99.99,,,-99.99,,2013-02-16 17:11:00,
2013-02-16 09:22:00,46.0,-99.9,30.31,WNW,284,3.0,6.0,-999,-99.99,,,-99.99,,2013-02-16 17:22:00,
2013-02-16 09:32:00,46.0,-99.9,30.32,West,270,4.0,5.0,-999,-99.99,,,-99.99,,2013-02-16 17:32:00,
2013-02-16 09:42:00,47.0,-99.9,30.32,WSW,258,3.0,5.0,-999,-99.99,,,-99.99,,2013-02-16 17:42:00,
2013-02-16 09:52:00,47.0,-99.9,30.32,West,273,3.0,4.0,-999,-99.99,,,-99.99,,2013-02-16 17:52:00,
2013-02-16 10:02:00,47.0,-99.9,30.32,WSW,253,4.0,6.0,-999,-99.99,,,-99.99,,2013-02-16 18:02:00,
2013-02-16 10:11:00,47.0,-99.9,30.32,WSW,242,4.0,5.0,-999,-99.99,,,-99.99,,2013-02-16 18:11:00,
2013-02-16 10:22:00,47.0,-99.9,30.32,West,269,4.0,6.0,-999,-99.99,,,-99.99,,2013-02-16 18:22:00,
2013-02-16 10:33:00,47.0,-99.9,30.32,West,259,4.0,6.0,-999,-99.99,,,-99.99,,2013-02-16 18:33:00,
2013-02-16 10:42:00,47.0,-99.9,30.32,WSW,245,5.0,6.0,-999,-99.99,,,-99.99,,2013-02-16 18:42:00,
2013-02-16 10:52:00,47.0,-99.9,30.32,SW,236,4.0,6.0,-999,-99.99,,,-99.99,,2013-02-16 18:52:00,
2013-02-16 11:02:00,47.0,-99.9,30.32,WSW,247,4.0,7.0,-999,-99.99,,,-99.99,,2013-02-16 19:02:00,
2013-02-16 11:11:00,47.0,-99.9,30.32,West,268,7.0,11.0,-999,-99.99,,,-99.99,,2013-02-16 19:11:00,
2013-02-16 11:22:00,46.0,-99.9,30.32,WNW,287,7.0,9.0,-999,-99.99,,,-99.99,,2013-02-16 19:22:00,
2013-02-16 11:32:00,47.0,-99.9,30.32,West,273,5.0,6.0,-999,-99.99,,,-99.99,,2013-02-16 19:32:00,
2013-02-16 11:42:00,47.0,-99.9,30.32,West,281,4.0,6.0,-999,-99.99,,,-99.99,,2013-02-16 19:42:00,
2013-02-16 11:52:00,47.0,-99.9,30.32,WNW,284,4.0,6.0,-999,-99.99,,,-99.99,,2013-02-16 19:52:00,
2013-02-16 12:02:00,48.0,-99.9,30.32,West,272,3.0,7.0,-999,-99.99,,,-99.99,,2013-02-16 20:02:00,
2013-02-16 12:11:00,48.0,-99.9,30.32,West,273,4.0,7.0,-999,-99.99,,,-99.99,,2013-02-16 20:11:00,
2013-02-16 12:22:00,48.0,-99.9,30.32,West,272,4.0,6.0,-999,-99.99,,,-99.99,,2013-02-16 20:22:00,
2013-02-16 12:32:00,49.0,-99.9,30.32,WSW,239,4.0,6.0,-999,-99.99,,,-99.99,,2013-02-16 20:32:00,
2013-02-16 12:42:00,48.0,-99.9,30.32,WSW,253,4.0,6.0,-999,-99.99,,,-99.99,,2013-02-16 20:42:00,
2013-02-16 12:52:00,49.0,-99.9,30.32,WSW,257,5.0,9.0,-999,-99.99,,,-99.99,,2013-02-16 20:52:00,
2013-02-16 13:02:00,49.0,-99.9,30.32,WNW,287,11.0,14.0,-999,-99.99,,,-99.99,,2013-02-16 21:02:00,
2013-02-16 13:11:00,49.0,-99.9,30.31,West,280,9.0,13.0,-999,-99.99,,,-99.99,,2013-02-16 21:11:00,
2013-02-16 13:22:00,47.0,-99.9,30.31,West,278,10.0,15.0,-999,-99.99,,,-99.99,,2013-02-16 21:22:00,
2013-02-16 13:32:00,47.0,-99.9,30.31,West,265,7.0,9.0,-999,-99.99,,,-99.99,,2013-02-16 21:32:00,
2013-02-16 13:42:00,48.0,-99.9,30.31,West,281,8.0,13.0,-999,-99.99,,,-99.99,,2013-02-16 21:42:00,
2013-02-16 13:52:00,48.0,-99.9,30.31,WNW,283,10.0,14.0,-999,-99.99,,,-99.99,,2013-02-16 21:52:00,
2013-02-16 14:02:00,48.0,-99.9,30.31,West,279,8.0,11.0,-999,-99.99,,,-99.99,,2013-02-16 22:02:00,
2013-02-16 14:11:00,48.0,-99.9,30.30,West,280,8.0,15.0,-999,-99.99,,,-99.99,,2013-02-16 22:11:00,
2013-02-16 14:22:00,48.0,-99.9,30.30,West,274,8.0,12.0,-999,-99.99,,,-99.99,,2013-02-16 22:22:00,
2013-02-16 14:32:00,48.0,-99.9,30.30,NW,320,9.0,11.0,-999,-99.99,,,-99.99,,2013-02-16 22:32:00,
2013-02-16 14:42:00,48.0,-99.9,30.30,NW,309,6.0,10.0,-999,-99.99,,,-99.99,,2013-02-16 22:42:00,
2013-02-16 14:52:00,48.0,-99.9,30.30,NNW,333,6.0,9.0,-999,-99.99,,,-99.99,,2013-02-16 22:52:00,
2013-02-16 15:02:00,48.0,-99.9,30.30,NW,306,5.0,9.0,-999,-99.99,,,-99.99,,2013-02-16 23:02:00,
2013-02-16 15:11:00,48.0,-99.9,30.30,NW,312,6.0,10.0,-999,-99.99,,,-99.99,,2013-02-16 23:11:00,
2013-02-16 15:21:00,49.0,-99.9,30.30,WNW,300,6.0,10.0,-999,-99.99,,,-99.99,,2013-02-16 23:21:00,
2013-02-16 15:32:00,48.0,-99.9,30.30,WNW,303,7.0,10.0,-999,-99.99,,,-99.99,,2013-02-16 23:32:00,
2013-02-16 15:42:00,48.0,-99.9,30.30,West,276,5.0,9.0,-999,-99.99,,,-99.99,,2013-02-16 23:42:00,
2013-02-16 15:52:00,48.0,-99.9,30.30,West,279,5.0,8.0,-999,-99.99,,,-99.99,,2013-02-16 23:52:00,
2013-02-16 16:02:00,49.0,-99.9,30.30,NW,308,9.0,13.0,-999,-99.99,,,-99.99,,2013-02-17 00:02:00,
2013-02-16 16:12:00,49.0,-99.9,30.30,NW,309,9.0,14.0,-999,-99.99,,,-99.99,,2013-02-17 00:12:00,
2013-02-16 16:22:00,49.0,-99.9,30.30,NW,312,11.0,16.0,-999,-99.99,,,-99.99,,2013-02-17 00:22:00,
2013-02-16 16:32:00,49.0,-99.9,30.30,NW,311,8.0,15.0,-999,-99.99,,,-99.99,,2013-02-17 00:32:00,
2013-02-16 16:42:00,48.0,-99.9,30.30,NNW,336,9.0,16.0,-999,-99.99,,,-99.99,,2013-02-17 00:42:00,
2013-02-16 16:52:00,48.0,-99.9,30.30,NNW,348,6.0,13.0,-999,-99.99,,,-99.99,,2013-02-17 00:52:00,
2013-02-16 17:01:00,48.0,-99.9,30.30,NNW,344,9.0,15.0,-999,-99.99,,,-99.99,,2013-02-17 01:01:00,
2013-02-16 17:11:00,47.0,-99.9,30.30,NW,317,13.0,18.0,-999,-99.99,,,-99.99,,2013-02-17 01:11:00,
2013-02-16 17:21:00,47.0,-99.9,30.30,NW,305,9.0,18.0,-999,-99.99,,,-99.99,,2013-02-17 01:21:00,
2013-02-16 17:32:00,47.0,-99.9,30.30,WNW,287,4.0,6.0,-999,-99.99,,,-99.99,,2013-02-17 01:32:00,
2013-02-16 17:42:00,48.0,-99.9,30.30,WNW,287,5.0,7.0,-999,-99.99,,,-99.99,,2013-02-17 01:42:00,
2013-02-16 17:52:00,48.0,-99.9,30.30,WNW,297,6.0,8.0,-999,-99.99,,,-99.99,,2013-02-17 01:52:00,
2013-02-16 18:01:00,48.0,-99.9,30.30,NW,316,7.0,10.0,-999,-99.99,,,-99.99,,2013-02-17 02:01:00,
2013-02-16 18:11:00,48.0,-99.9,30.30,NW,314,6.0,9.0,-999,-99.99,,,-99.99,,2013-02-17 02:11:00,
2013-02-16 18:21:00,48.0,-99.9,30.30,WNW,297,8.0,11.0,-999,-99.99,,,-99.99,,2013-02-17 02:21:00,
2013-02-16 18:32:00,46.0,-99.9,30.30,NW,325,12.0,17.0,-999,-99.99,,,-99.99,,2013-02-17 02:32:00,
2013-02-16 18:42:00,46.0,-99.9,30.30,NNW,342,8.0,17.0,-999,-99.99,,,-99.99,,2013-02-17 02:42:00,
2013-02-16 18:52:00,46.0,-99.9,30.30,NW,323,9.0,13.0,-999,-99.99,,,-99.99,,2013-02-17 02:52:00,
2013-02-16 19:02:00,46.0,-99.9,30.31,NNW,328,13.0,19.0,-999,-99.99,,,-99.99,,2013-02-17 03:02:00,
2013-02-16 19:11:00,45.0,-99.9,30.31,NW,323,11.0,20.0,-999,-99.99,,,-99.99,,2013-02-17 03:11:00,
2013-02-16 19:21:00,45.0,-99.9,30.31,NNW,347,9.0,11.0,-999,-99.99,,,-99.99,,2013-02-17 03:21:00,
2013-02-16 19:32:00,45.0,-99.9,30.31,North,357,6.0,14.0,-999,-99.99,,,-99.99,,2013-02-17 03:32:00,
2013-02-16 19:42:00,44.0,-99.9,30.31,North,6,8.0,12.0,-999,-99.99,,,-99.99,,2013-02-17 03:42:00,
2013-02-16 19:52:00,44.0,-99.9,30.32,North,358,5.0,9.0,-999,-99.99,,,-99.99,,2013-02-17 03:52:00,
2013-02-16 20:01:00,44.0,-99.9,30.32,NNW,346,9.0,13.0,-999,-99.99,,,-99.99,,2013-02-17 04:01:00,
2013-02-16 20:11:00,45.0,-99.9,30.31,North,360,9.0,15.0,-999,-99.99,,,-99.99,,2013-02-17 04:11:00,
2013-02-16 20:21:00,45.0,-99.9,30.31,NNW,348,8.0,18.0,-999,-99.99,,,-99.99,,2013-02-17 04:21:00,
2013-02-16 20:32:00,45.0,-99.9,30.32,North,2,8.0,15.0,-999,-99.99,,,-99.99,,2013-02-17 04:32:00,
2013-02-16 20:42:00,45.0,-99.9,30.32,North,3,7.0,11.0,-999,-99.99,,,-99.99,,2013-02-17 04:42:00,
2013-02-16 20:52:00,45.0,-99.9,30.32,North,9,7.0,10.0,-999,-99.99,,,-99.99,,2013-02-17 04:52:00,
2013-02-16 21:02:00,45.0,-99.9,30.32,North,7,5.0,7.0,-999,-99.99,,,-99.99,,2013-02-17 05:02:00,
2013-02-16 21:12:00,45.0,-99.9,30.32,NNE,14,4.0,6.0,-999,-99.99,,,-99.99,,2013-02-17 05:12:00,
2013-02-16 21:22:00,44.0,-99.9,30.32,NE,37,2.0,4.0,-999,-99.99,,,-99.99,,2013-02-17 05:22:00,
2013-02-16 21:33:00,44.0,-99.9,30.32,ENE,75,1.0,2.0,-999,-99.99,,,-99.99,,2013-02-17 05:33:00,
2013-02-16 21:42:00,43.0,-99.9,30.32,North,5,3.0,5.0,-999,-99.99,,,-99.99,,2013-02-17 05:42:00,
2013-02-16 21:52:00,44.0,-99.9,30.32,North,1,4.0,7.0,-999,-99.99,,,-99.99,,2013-02-17 05:52:00,
2013-02-16 22:02:00,44.0,-99.9,30.32,North,358,4.0,6.0,-999,-99.99,,,-99.99,,2013-02-17 06:02:00,
2013-02-16 22:11:00,44.0,-99.9,30.32,North,352,3.0,4.0,-999,-99.99,,,-99.99,,2013-02-17 06:11:00,
2013-02-16 22:21:00,44.0,-99.9,30.32,NNW,348,2.0,5.0,-999,-99.99,,,-99.99,,2013-02-17 06:21:00,
2013-02-16 22:32:00,44.0,-99.9,30.32,NNW,339,9.0,13.0,-999,-99.99,,,-99.99,,2013-02-17 06:32:00,
2013-02-16 22:42:00,44.0,-99.9,30.32,North,9,6.0,9.0,-999,-99.99,,,-99.99,,2013-02-17 06:42:00,
2013-02-16 22:52:00,43.0,-99.9,30.32,North,8,3.0,5.0,-999,-99.99,,,-99.99,,2013-02-17 06:52:00,
2013-02-16 23:01:00,43.0,-99.9,30.32,North,-999,0.0,3.0,-999,-99.99,,,-99.99,,2013-02-17 07:01:00,
2013-02-16 23:11:00,43.0,-99.9,30.32,North,9,3.0,4.0,-999,-99.99,,,-99.99,,2013-02-17 07:11:00,
2013-02-16 23:21:00,43.0,-99.9,30.32,North,2,3.0,6.0,-999,-99.99,,,-99.99,,2013-02-17 07:21:00,
2013-02-16 23:32:00,44.0,-99.9,30.32,North,11,7.0,15.0,-999,-99.99,,,-99.99,,2013-02-17 07:32:00,
2013-02-16 23:42:00,43.0,-99.9,30.31,North,7,6.0,9.0,-999,-99.99,,,-99.99,,2013-02-17 07:42:00,
2013-02-16 23:52:00,44.0,-99.9,30.31,North,6,5.0,9.0,-999,-99.99,,,-99.99,,2013-02-17 07:52:00,